Du Bois, PA

3:04 PM EST on December 05, 2019 (GMT -0500)
Du Bois-Jefferson County

Weather History for KDUJ - October, 2019

Change the Weather History Date:

Friday, October 18, 2019

  Actual Average Record
Temperature  
Mean Temperature 44 °F 48 °F  
Max Temperature 52 °F 58 °F 79 °F (1963)
Min Temperature 36 °F 39 °F 24 °F (1972)
Degree Days  
Heating Degree Days 21 17  
Month to date heating degree days 230 254  
Since 1 July heating degree days 333 500  
Cooling Degree Days 0 0  
Month to date cooling degree days 23 0  
Year to date cooling degree days 430 360  
Moisture  
Dew Point 35 °F    
Average Humidity 81    
Maximum Humidity 93    
Minimum Humidity 56    
Precipitation  
Precipitation 0.00 in 0.09 in 1.48 in (1996)
Month to date precipitation 2.64 1.83  
Year to date precipitation 39.04 35.07  
Sea Level Pressure  
Sea Level Pressure 29.99 in    
Wind  
Wind Speed 8 mph ()    
Max Wind Speed 15 mph    
Max Gust Speed 21 mph    
Visibility 10.0 miles    
Events      
T = Trace of Precipitation, MM = Missing Value Source: Averaged Metar Reports

Daily Weather History Graph

Daily Weather History Graph

Search for Another Location

Airport or City:

Astronomy

Oct. 18, 2019 Rise Set
Actual Time 7:30 AM EDT 6:30 PM EDT
Civil Twilight 7:02 AM EDT 6:58 PM EDT
Nautical Twilight 6:30 AM EDT 7:30 PM EDT
Astronomical Twilight 5:58 AM EDT 8:02 PM EDT
Moon 9:43 PM EDT (10/18) 12:03 PM EDT (10/18)
Length of Visible Light 11h 56m
Length of Day
11h 00m
Waning Gibbous, 79% of the Moon is Illuminated
Oct 18
Waning Gibbous
Oct 21
Last Quarter
Oct 27
New
Nov 4
First Quarter
Nov 12
Full

Hourly Weather History & Observations

Time (EDT) Temp. Windchill Dew Point Humidity Pressure Visibility Wind Dir Wind Speed Gust Speed Precip Events Conditions
12:53 AM 39.0 °F 31.4 °F 36.0 °F 89% 29.88 in 10.0 mi WNW 12.7 mph 20.7 mph N/A   Overcast
1:53 AM 37.9 °F 31.5 °F 36.0 °F 93% 29.90 in 10.0 mi WNW 9.2 mph - N/A   Overcast
2:18 AM 37.0 °F 31.0 °F 35.1 °F 93% 29.87 in 10.0 mi West 8.1 mph - N/A   Mostly Cloudy
2:29 AM 37.0 °F 31.0 °F 35.1 °F 93% 29.87 in 10.0 mi WNW 8.1 mph - N/A   Scattered Clouds
2:53 AM 37.0 °F 29.8 °F 35.1 °F 93% 29.90 in 10.0 mi West 10.4 mph - N/A   Partly Cloudy
3:53 AM 37.0 °F 31.6 °F 35.1 °F 93% 29.92 in 10.0 mi WNW 6.9 mph - N/A   Scattered Clouds
4:00 AM 37.0 °F 30.4 °F 35.1 °F 93% 29.89 in 10.0 mi West 9.2 mph - N/A   Mostly Cloudy
4:53 AM 37.0 °F 29.8 °F 35.1 °F 93% 29.93 in 10.0 mi WNW 10.4 mph - N/A   Mostly Cloudy
5:18 AM 36.0 °F 28.5 °F 34.0 °F 93% 29.91 in 10.0 mi WNW 10.4 mph - N/A   Scattered Clouds
5:53 AM 36.0 °F 29.0 °F 34.0 °F 93% 29.96 in 10.0 mi WNW 9.2 mph - N/A   Clear
6:53 AM 36.0 °F 28.5 °F 34.0 °F 93% 29.98 in 10.0 mi WNW 10.4 mph - N/A   Scattered Clouds
7:53 AM 36.0 °F 30.3 °F 34.0 °F 93% 29.99 in 10.0 mi West 6.9 mph - N/A   Partly Cloudy
8:53 AM 41.0 °F 35.8 °F 37.0 °F 86% 30.01 in 10.0 mi WNW 8.1 mph - N/A   Mostly Cloudy
9:53 AM 42.1 °F 37.1 °F 37.0 °F 82% 30.02 in 10.0 mi WNW 8.1 mph - N/A   Overcast
10:53 AM 44.1 °F 39.0 °F 37.0 °F 76% 30.04 in 10.0 mi WNW 9.2 mph - N/A   Overcast
11:00 AM 44.1 °F 40.8 °F 37.0 °F 76% 30.00 in 10.0 mi Variable 5.8 mph - N/A   Overcast
11:53 AM 45.0 °F 41.2 °F 36.0 °F 71% 30.05 in 10.0 mi NW 6.9 mph - N/A   Overcast
12:00 PM 45.0 °F 40.1 °F 35.1 °F 68% 30.02 in 10.0 mi NNW 9.2 mph - N/A   Overcast
12:53 PM 46.0 °F 41.0 °F 35.1 °F 66% 30.04 in 10.0 mi WNW 10.4 mph - N/A   Mostly Cloudy
1:53 PM 50.0 °F - 36.0 °F 59% 30.02 in 10.0 mi NW 8.1 mph 19.6 mph N/A   Mostly Cloudy
2:53 PM 51.1 °F - 36.0 °F 56% 30.02 in 10.0 mi West 12.7 mph 19.6 mph N/A   Partly Cloudy
3:53 PM 51.1 °F - 36.0 °F 56% 30.03 in 10.0 mi West 9.2 mph - N/A   Scattered Clouds
4:53 PM 50.0 °F - 35.1 °F 57% 30.03 in 10.0 mi West 10.4 mph - N/A   Partly Cloudy
5:53 PM 46.9 °F - 37.0 °F 68% 30.04 in 10.0 mi West 8.1 mph - N/A   Clear
6:53 PM 44.1 °F 40.8 °F 36.0 °F 73% 30.04 in 10.0 mi West 5.8 mph - N/A   Clear
8:53 PM 39.0 °F 36.8 °F 35.1 °F 86% 30.06 in 10.0 mi WSW 3.5 mph - N/A   Clear
9:53 PM 37.9 °F - 35.1 °F 89% 30.09 in 10.0 mi Calm Calm - N/A   Clear
10:53 PM 37.9 °F - 35.1 °F 89% 30.08 in 10.0 mi Calm Calm - N/A   Clear
11:53 PM 37.0 °F - 34.0 °F 89% 30.09 in 10.0 mi Calm Calm - N/A   Clear